Regional Weather Roundup
Issued by NWS

Home | Current Version | Previous Version | Graphics & Text | Print | Product List | Glossary On
Versions: 1 2 3 4 5 6 7 8 9 10 11 12 13 14 15 16 17 18 19 20 21 22 23 24 25 26 27
000
ASUS45 KCYS 171210
RWRWY

WYOMING REGIONAL WEATHER ROUNDUP
NATIONAL WEATHER SERVICE CHEYENNE WY
500 AM MST FRI NOV 17 2017

NOTE:  "FAIR" INDICATES FEW OR NO CLOUDS BELOW 12,000 FEET
WITH NO SIGNIFICANT WEATHER AND/OR OBSTRUCTIONS TO VISIBILITY.

WYZ001-171300-
YELLOWSTONE NATIONAL PARK

CITY           SKY/WX    TMP DP  RH WIND       PRES   REMARKS
LK YELLOWSTONE   N/A     27  25  92 CALM      29.63F
6HR MIN TEMP:  27; 6HR MAX TEMP:  29; 6HR PCP:  0.02;

W YELLOWSTONE  NOT AVBL

$$
WYZ002>013-054>058-071-098>099-171300-
NORTHERN WYOMING

CITY           SKY/WX    TMP DP  RH WIND       PRES   REMARKS
JACKSON        CLOUDY    33  28  81 SW9       29.66F WCI  25
CODY           LGT RAIN  33  31  92 N9        29.63S WCI  25
GREYBULL       MOCLDY    37  34  89 W8        29.61S WCI  31
6HR MIN TEMP:  36; 6HR MAX TEMP:  43; 6HR PCP:  0.03;

WORLAND        FAIR      34  34 100 N6        29.59S WCI  29
6HR MIN TEMP:  33; 6HR MAX TEMP:  46; 6HR PCP:  0.01;

SHERIDAN       LGT SNOW  33  33 100 N7        29.66R VSB 1   WCI  27
6HR MIN TEMP:  33; 6HR MAX TEMP:  35; 6HR PCP:  0.14;

BUFFALO        CLOUDY    33  30  88 SE9       29.62F FOG     WCI  25
6HR MIN TEMP:  32; 6HR MAX TEMP:  34; 6HR PCP:  0.08;

GILLETTE       CLOUDY    33  31  92 CALM      29.64R
6HR MIN TEMP:  32; 6HR MAX TEMP:  40; 6HR PCP:  0.03;

HULETT         CLOUDY    34  32  93 CALM      29.65R
NEWCASTLE      DRIZZLE   36  32  87 SE10      29.63S WCI  28

$$
WYZ014>020-022>026-101>103-171300-
CENTRAL WYOMING

CITY           SKY/WX    TMP DP  RH WIND       PRES   REMARKS
BIG PINEY      LGT SNOW  32  32 100 CALM      29.72S VSB 1
6HR MIN TEMP:  32; 6HR MAX TEMP:  35; 6HR PCP:  0.05;

PINEDALE       LGT SNOW  32  32 100 W16       29.73R WCI  21
DUBOIS         FAIR      32  25  74 NW18G25   29.64R WCI  20
LANDER         CLOUDY    38  34  85 W9        29.62R WCI  31
6HR MIN TEMP:  38; 6HR MAX TEMP:  48; 6HR PCP: TRACE;

RIVERTON       FAIR      38  33  82 NW3       29.62F
6HR MIN TEMP:  36; 6HR MAX TEMP:  48; 6HR PCP: TRACE;

CASPER         CLOUDY    34  32  92 CALM      29.65S
6HR MIN TEMP:  34; 6HR MAX TEMP:  51;

DOUGLAS        LGT RAIN  44  43  96 NW12      29.65R
6HR MIN TEMP:  44; 6HR MAX TEMP:  56; 6HR PCP: TRACE;


$$
WYZ021-027>030-104>119-171300-
SOUTHERN WYOMING

CITY           SKY/WX    TMP DP  RH WIND       PRES   REMARKS
EVANSTON       LGT SNOW  32  32 100 N13       29.76R VSB 3/4 WCI  22
6HR MIN TEMP:  32; 6HR MAX TEMP:  39; 6HR PCP:  0.27;

FORT BRIDGER   LGT SNOW  34  34 100 N10G16    29.77R VSB 3/4 WCI  26
ROCK SPRINGS   CLOUDY    35  33  92 NW5       29.72F WCI  31
6HR MIN TEMP:  35; 6HR MAX TEMP:  41; 6HR PCP:  0.05;

DIXON          LGT RAIN  47  32  56 NW18G36   29.78R
RAWLINS        CLOUDY    39  37  92 W17       29.72S WCI  30
6HR MIN TEMP:  39; 6HR MAX TEMP:  50; 6HR PCP:  0.04;

SARATOGA       DRIZZLE   41  34  75 NW10G30   29.74R
LARAMIE        FAIR      47  29  49 W30G40    29.69R
6HR MIN TEMP:  40; 6HR MAX TEMP:  47;

CHEYENNE       FAIR      53  28  38 W17       29.66R
6HR MIN TEMP:  48; 6HR MAX TEMP:  55;

TORRINGTON     CLOUDY    43  31  62 N10       29.60R
6HR MIN TEMP:  40; 6HR MAX TEMP:  52;

PINE BLUFFS    FAIR      36  28  75 MISG      29.64R

$$




USA.gov is the U.S. government's official web portal to all federal, state and local government web resources and services.